Location: Glens Falls
(43.3090°N, 73.6440°W)
Time: 10:14:18
(UTC-04:00)

ERS-2 - Pass Details

Date: 24 February 2018
Orbit: 497 x 503 km, 98.5° (Epoch: 20 June)

Event Time Altitude Azimuth Distance (km) Brightness Sun altitude
Rises 18:20:39 0° 148° (SSE) 2,590 5.5 -8.6°
Reaches altitude 10° 18:22:48 10° 141° (SE) 1,710 4.5 -9.0°
Maximum altitude 18:26:15 40° 71° (ENE) 756 2.6 -9.6°
Drops below altitude 10° 18:29:43 10° 1° (N) 1,719 4.8 -10.3°
Sets 18:31:53 0° 354° (N) 2,607 5.8 -10.7°
